| time (UTC) | temp C | wind direction | speed KPH | gust KPH | rain 1hr cm | rain 24hr cm | rain mn cm | humidity % | barometer mb |
| 20260505021532 | 5 | 0 | 0.0 | 12.9 | 0.00 | 1.32 | 1.32 | 89 | 1014.0 |
| 20260505020028 | 5 | 44 | 6.4 | 9.7 | 0.00 | 1.32 | 1.32 | 89 | 1013.8 |
| 20260505014532 | 6 | 67 | 4.8 | 8.0 | 0.00 | 1.32 | 1.32 | 89 | 1013.6 |
| 20260505013032 | 6 | 72 | 3.2 | 6.4 | 0.00 | 1.32 | 1.32 | 88 | 1013.4 |
| 20260505011531 | 6 | 351 | 1.6 | 3.2 | 0.03 | 1.32 | 1.32 | 88 | 1013.4 |
| 20260505010031 | 6 | 332 | 6.4 | 9.7 | 0.08 | 1.32 | 1.32 | 88 | 1013.3 |
| 20260505004528 | 6 | 94 | 1.6 | 8.0 | 0.28 | 1.32 | 1.32 | 88 | 1013.1 |
| 20260505003029 | 6 | 107 | 4.8 | 12.9 | 0.38 | 1.32 | 1.32 | 88 | 1013.1 |
| 20260505001530 | 6 | 106 | 11.3 | 19.3 | 0.61 | 1.30 | 1.30 | 87 | 1013.4 |
| 20260505000033 | 6 | 155 | 3.2 | 17.7 | 0.64 | 1.24 | 1.24 | 87 | 1014.1 |
| 20260504234529 | 6 | 162 | 12.9 | 17.7 | 0.43 | 1.04 | 1.04 | 86 | 1014.4 |
| 20260504233028 | 6 | 146 | 14.5 | 27.4 | 0.30 | 0.91 | 0.91 | 82 | 1013.8 |
| 20260504231530 | 7 | 174 | 8.0 | 14.5 | 0.08 | 0.69 | 0.69 | 81 | 1013.8 |
| 20260504230030 | 8 | 123 | 3.2 | 12.9 | 0.00 | 0.61 | 0.61 | 82 | 1013.5 |
| 20260504224531 | 8 | 129 | 6.4 | 14.5 | 0.00 | 0.61 | 0.61 | 81 | 1013.4 |
| 20260504223030 | 8 | 134 | 12.9 | 24.1 | 0.00 | 0.61 | 0.61 | 82 | 1013.6 |
| 20260504221528 | 8 | 143 | 11.3 | 16.1 | 0.00 | 0.61 | 0.61 | 83 | 1013.8 |
| 20260504220030 | 7 | 122 | 11.3 | 19.3 | 0.00 | 0.61 | 0.61 | 86 | 1014.1 |
| 20260504214535 | 7 | 115 | 12.9 | 20.9 | 0.00 | 0.61 | 0.61 | 88 | 1014.4 |
| 20260504213031 | 7 | 171 | 14.5 | 25.7 | 0.10 | 0.61 | 0.61 | 86 | 1014.8 |
| 20260504211531 | 8 | 130 | 4.8 | 14.5 | 0.10 | 0.61 | 0.61 | 89 | 1014.7 |
| 20260504210032 | 8 | 61 | 9.7 | 27.4 | 0.23 | 0.61 | 0.61 | 90 | 1014.6 |
| 20260504204531 | 6 | 99 | 11.3 | 17.7 | 0.23 | 0.61 | 0.61 | 87 | 1014.8 |
| 20260504203032 | 6 | 321 | 4.8 | 9.7 | 0.13 | 0.51 | 0.51 | 85 | 1015.7 |
| 20260504201532 | 7 | 311 | 9.7 | 16.1 | 0.13 | 0.51 | 0.51 | 80 | 1015.5 |
| 20260504200040 | 8 | 251 | 6.4 | 17.7 | 0.00 | 0.38 | 0.38 | 74 | 1015.2 |
| 20260504194536 | 9 | 98 | 4.8 | 14.5 | 0.00 | 0.38 | 0.38 | 72 | 1014.9 |
| 20260504193032 | 10 | 83 | 6.4 | 16.1 | 0.03 | 0.38 | 0.38 | 76 | 1015.1 |
| 20260504191543 | 8 | 5 | 8.0 | 16.1 | 0.10 | 0.38 | 0.38 | 80 | 1015.5 |
| 20260504190031 | 7 | 309 | 6.4 | 11.3 | 0.18 | 0.38 | 0.38 | 81 | 1015.9 |
| 20260504184540 | 7 | 69 | 8.0 | 17.7 | 0.30 | 0.38 | 0.38 | 79 | 1016.0 |
| 20260504183040 | 7 | 105 | 8.0 | 16.1 | 0.36 | 0.36 | 0.36 | 81 | 1015.8 |
| 20260504181534 | 6 | 88 | 4.8 | 25.7 | 0.28 | 0.28 | 0.28 | 83 | 1016.1 |
| 20260504180030 | 5 | 121 | 16.1 | 30.6 | 0.20 | 0.20 | 0.20 | 82 | 1016.4 |
| 20260504174531 | 5 | 121 | 11.3 | 22.5 | 0.08 | 0.08 | 0.08 | 78 | 1016.4 |
| 20260504173032 | 10 | 170 | 27.4 | 45.1 | 0.00 | 0.00 | 0.00 | 57 | 1016.1 |
| 20260504171532 | 12 | 239 | 3.2 | 8.0 | 0.00 | 0.00 | 0.00 | 47 | 1015.9 |
| 20260504081531 | 5 | 134 | 8.0 | 20.9 | 0.00 | 0.00 | 0.00 | 51 | 1016.5 |
| 20260504044540 | 6 | 78 | 8.0 | 12.9 | 0.00 | 0.00 | 0.00 | 45 | 1017.6 |
| 20260504043032 | 7 | 71 | 8.0 | 12.9 | 0.00 | 0.00 | 0.00 | 44 | 1017.6 |
| 20260504041531 | 7 | 78 | 8.0 | 16.1 | 0.00 | 0.00 | 0.00 | 44 | 1017.8 |
| 20260504040030 | 7 | 69 | 9.7 | 14.5 | 0.00 | 0.00 | 0.00 | 43 | 1017.7 |
| 20260504034551 | 7 | 65 | 9.7 | 14.5 | 0.00 | 0.00 | 0.00 | 43 | 1017.7 |
| 20260504033029 | 7 | 78 | 8.0 | 12.9 | 0.00 | 0.00 | 0.00 | 41 | 1017.6 |
| 20260504031532 | 8 | 68 | 9.7 | 16.1 | 0.00 | 0.00 | 0.00 | 40 | 1017.5 |
| 20260504030042 | 8 | 70 | 9.7 | 14.5 | 0.00 | 0.00 | 0.00 | 39 | 1017.5 |
| 20260504024530 | 9 | 74 | 8.0 | 12.9 | 0.00 | 0.00 | 0.00 | 37 | 1017.3 |
| 20260504023033 | 10 | 59 | 6.4 | 12.9 | 0.00 | 0.00 | 0.00 | 35 | 1017.1 |